| time (UTC) | temp F | wind direction | speed MPH | gust MPH | rain 1hr in | rain 24hr in | rain mn in | humidity % | barometer mb |
| 20260509110902 | 51 | 286 | 0.0 | 0.0 | 0.00 | 0.00 | 0.00 | 70 | 1000.9 |
| 20260509105902 | 52 | 259 | 0.0 | 0.0 | 0.00 | 0.00 | 0.00 | 70 | 1000.8 |
| 20260509104902 | 52 | 252 | 0.0 | 0.0 | 0.00 | 0.00 | 0.00 | 68 | 1000.7 |
| 20260509103902 | 53 | 207 | 0.0 | 0.0 | 0.00 | 0.00 | 0.00 | 65 | 1000.7 |
| 20260509102902 | 53 | 311 | 0.0 | 0.0 | 0.00 | 0.00 | 0.00 | 61 | 1000.8 |
| 20260509101932 | 53 | 196 | 0.0 | 0.0 | 0.00 | 0.00 | 0.00 | 60 | 1000.4 |
| 20260509100902 | 53 | 274 | 0.0 | 0.0 | 0.00 | 0.00 | 0.00 | 58 | 1000.4 |
| 20260509095902 | 53 | 263 | 0.0 | 0.0 | 0.00 | 0.00 | 0.00 | 57 | 1000.6 |
| 20260509094902 | 53 | 339 | 0.0 | 0.0 | 0.00 | 0.00 | 0.00 | 55 | 1001.0 |
| 20260509093902 | 54 | 345 | 1.0 | 3.0 | 0.00 | 0.00 | 0.00 | 55 | 1001.0 |
| 20260509092902 | 54 | 307 | 1.0 | 1.0 | 0.00 | 0.00 | 0.00 | 53 | 1000.8 |
| 20260509091902 | 54 | 314 | 0.0 | 0.0 | 0.00 | 0.00 | 0.00 | 53 | 1000.7 |
| 20260509090902 | 54 | 334 | 1.0 | 2.0 | 0.00 | 0.00 | 0.00 | 52 | 1000.7 |
| 20260509085902 | 54 | 295 | 0.0 | 1.0 | 0.00 | 0.00 | 0.00 | 51 | 1000.8 |
| 20260509084902 | 54 | 304 | 1.0 | 2.0 | 0.00 | 0.00 | 0.00 | 51 | 1000.5 |
| 20260509083902 | 53 | 308 | 0.0 | 0.0 | 0.00 | 0.00 | 0.00 | 52 | 1000.3 |
| 20260509082933 | 52 | 301 | 0.0 | 1.0 | 0.00 | 0.00 | 0.00 | 55 | 1000.4 |
| 20260509081932 | 52 | 165 | 0.0 | 0.0 | 0.00 | 0.00 | 0.00 | 54 | 999.9 |
| 20260509080902 | 52 | 107 | 0.0 | 0.0 | 0.00 | 0.00 | 0.00 | 57 | 999.7 |
| 20260509075902 | 52 | 107 | 0.0 | 0.0 | 0.00 | 0.00 | 0.00 | 54 | 999.5 |
| 20260509074901 | 52 | 107 | 0.0 | 0.0 | 0.00 | 0.00 | 0.00 | 54 | 999.5 |
| 20260509073931 | 51 | 107 | 0.0 | 0.0 | 0.00 | 0.00 | 0.00 | 54 | 999.7 |
| 20260509072903 | 51 | 107 | 0.0 | 0.0 | 0.00 | 0.00 | 0.00 | 51 | 999.8 |
| 20260509071901 | 51 | 107 | 0.0 | 0.0 | 0.00 | 0.00 | 0.00 | 53 | 1000.0 |
| 20260509070902 | 51 | 107 | 0.0 | 0.0 | 0.00 | 0.00 | 0.00 | 52 | 1000.0 |
| 20260509065902 | 51 | 107 | 0.0 | 0.0 | 0.00 | 0.00 | 0.00 | 50 | 1000.0 |
| 20260509064902 | 52 | 94 | 0.0 | 0.0 | 0.00 | 0.00 | 0.00 | 46 | 1000.1 |
| 20260509063902 | 52 | 94 | 0.0 | 0.0 | 0.00 | 0.00 | 0.00 | 47 | 1000.2 |
| 20260509062902 | 52 | 94 | 0.0 | 0.0 | 0.00 | 0.00 | 0.00 | 51 | 1000.3 |
| 20260509061902 | 53 | 94 | 0.0 | 0.0 | 0.00 | 0.00 | 0.00 | 46 | 1000.2 |
| 20260509060902 | 53 | 94 | 0.0 | 0.0 | 0.00 | 0.00 | 0.00 | 44 | 1000.3 |
| 20260509055932 | 53 | 53 | 0.0 | 0.0 | 0.00 | 0.00 | 0.00 | 44 | 1000.7 |
| 20260509054902 | 54 | 53 | 0.0 | 0.0 | 0.00 | 0.00 | 0.00 | 43 | 1000.6 |
| 20260509053902 | 55 | 53 | 0.0 | 0.0 | 0.00 | 0.00 | 0.00 | 41 | 1000.7 |
| 20260509052902 | 55 | 52 | 0.0 | 0.0 | 0.00 | 0.00 | 0.00 | 40 | 1000.8 |
| 20260509051902 | 56 | 52 | 0.0 | 0.0 | 0.00 | 0.00 | 0.00 | 40 | 1000.9 |
| 20260509050932 | 57 | 52 | 0.0 | 0.0 | 0.00 | 0.00 | 0.00 | 41 | 1000.9 |
| 20260509045902 | 57 | 277 | 0.0 | 0.0 | 0.00 | 0.00 | 0.00 | 39 | 1001.0 |
| 20260509044902 | 58 | 5 | 0.0 | 0.0 | 0.00 | 0.00 | 0.00 | 39 | 1001.1 |
| 20260509043902 | 58 | 292 | 0.0 | 1.0 | 0.00 | 0.00 | 0.00 | 38 | 1001.2 |
| 20260509042903 | 59 | 296 | 0.0 | 0.0 | 0.00 | 0.00 | 0.00 | 37 | 1001.2 |
| 20260509042002 | 59 | 297 | 0.0 | 1.0 | 0.00 | 0.00 | 0.00 | 37 | 1001.2 |
| 20260509040903 | 60 | 292 | 1.0 | 3.0 | 0.00 | 0.00 | 0.00 | 37 | 1001.1 |
| 20260509035903 | 60 | 286 | 1.0 | 2.0 | 0.00 | 0.00 | 0.00 | 36 | 1001.1 |
| 20260509034902 | 60 | 298 | 0.0 | 0.0 | 0.00 | 0.00 | 0.00 | 36 | 1001.1 |
| 20260509033903 | 61 | 293 | 1.0 | 2.0 | 0.00 | 0.00 | 0.00 | 35 | 1001.1 |
| 20260509032932 | 61 | 297 | 1.0 | 4.0 | 0.00 | 0.00 | 0.00 | 36 | 1001.0 |
| 20260509031903 | 62 | 312 | 1.0 | 2.0 | 0.00 | 0.00 | 0.00 | 38 | 1000.9 |
| 20260509030902 | 62 | 310 | 2.0 | 4.0 | 0.00 | 0.00 | 0.00 | 37 | 1000.7 |
| 20260509025902 | 63 | 299 | 1.0 | 2.0 | 0.00 | 0.00 | 0.00 | 36 | 1000.7 |
| 20260509024902 | 63 | 306 | 2.0 | 4.0 | 0.00 | 0.00 | 0.00 | 36 | 1000.4 |
| 20260509023902 | 64 | 298 | 2.0 | 3.0 | 0.00 | 0.00 | 0.00 | 35 | 1000.3 |
| 20260509022932 | 64 | 269 | 1.0 | 3.0 | 0.00 | 0.00 | 0.00 | 34 | 1000.1 |
| 20260509021902 | 64 | 298 | 1.0 | 2.0 | 0.00 | 0.00 | 0.00 | 33 | 1000.0 |
| 20260509020932 | 65 | 289 | 1.0 | 2.0 | 0.00 | 0.00 | 0.00 | 32 | 999.8 |
| 20260509015902 | 65 | 289 | 2.0 | 2.0 | 0.00 | 0.00 | 0.00 | 31 | 999.7 |
| 20260509014902 | 65 | 283 | 1.0 | 2.0 | 0.00 | 0.00 | 0.00 | 31 | 999.5 |
| 20260509013902 | 65 | 285 | 1.0 | 2.0 | 0.00 | 0.00 | 0.00 | 31 | 999.5 |
| 20260509012902 | 66 | 288 | 0.0 | 0.0 | 0.00 | 0.00 | 0.00 | 30 | 999.4 |
| 20260509011902 | 67 | 277 | 1.0 | 3.0 | 0.00 | 0.00 | 0.00 | 31 | 999.3 |
| 20260509010902 | 67 | 267 | 1.0 | 2.0 | 0.00 | 0.00 | 0.00 | 30 | 999.3 |
| 20260509005902 | 68 | 275 | 1.0 | 2.0 | 0.00 | 0.00 | 0.00 | 30 | 999.3 |
| 20260509004902 | 68 | 276 | 2.0 | 2.0 | 0.00 | 0.00 | 0.00 | 29 | 999.2 |
| 20260509003932 | 68 | 291 | 2.0 | 4.0 | 0.00 | 0.00 | 0.00 | 30 | 999.2 |
| 20260509002902 | 69 | 288 | 3.0 | 6.0 | 0.00 | 0.00 | 0.00 | 30 | 999.1 |
| 20260509001902 | 69 | 302 | 2.0 | 3.0 | 0.00 | 0.00 | 0.00 | 31 | 999.2 |
| 20260509000902 | 69 | 281 | 1.0 | 2.0 | 0.00 | 0.00 | 0.00 | 30 | 999.2 |
| 20260508235902 | 69 | 271 | 2.0 | 3.0 | 0.00 | 0.00 | 0.00 | 30 | 999.2 |
| 20260508234902 | 69 | 277 | 1.0 | 3.0 | 0.00 | 0.00 | 0.00 | 31 | 999.3 |
| 20260508233932 | 69 | 295 | 1.0 | 2.0 | 0.00 | 0.00 | 0.00 | 31 | 999.4 |
| 20260508232902 | 69 | 285 | 2.0 | 3.0 | 0.00 | 0.00 | 0.00 | 32 | 999.5 |
| 20260508231902 | 69 | 286 | 1.0 | 1.0 | 0.00 | 0.00 | 0.00 | 30 | 999.5 |
| 20260508230902 | 70 | 282 | 2.0 | 3.0 | 0.00 | 0.00 | 0.00 | 30 | 999.6 |
| 20260508225902 | 70 | 249 | 2.0 | 4.0 | 0.00 | 0.00 | 0.00 | 30 | 999.5 |
| 20260508224902 | 70 | 267 | 2.0 | 2.0 | 0.00 | 0.00 | 0.00 | 30 | 999.7 |
| 20260508223902 | 70 | 266 | 2.0 | 3.0 | 0.00 | 0.00 | 0.00 | 30 | 999.7 |
| 20260508222902 | 69 | 270 | 1.0 | 2.0 | 0.00 | 0.00 | 0.00 | 30 | 999.9 |
| 20260508221902 | 69 | 277 | 2.0 | 3.0 | 0.00 | 0.00 | 0.00 | 32 | 999.9 |
| 20260508220902 | 69 | 271 | 1.0 | 2.0 | 0.00 | 0.00 | 0.00 | 29 | 1000.1 |
| 20260508215902 | 70 | 270 | 3.0 | 4.0 | 0.00 | 0.00 | 0.00 | 29 | 1000.2 |
| 20260508214902 | 70 | 312 | 2.0 | 4.0 | 0.00 | 0.00 | 0.00 | 28 | 1000.3 |
| 20260508213932 | 70 | 309 | 2.0 | 3.0 | 0.00 | 0.00 | 0.00 | 28 | 1000.4 |
| 20260508212902 | 70 | 245 | 3.0 | 4.0 | 0.00 | 0.00 | 0.00 | 29 | 1000.5 |
| 20260508211902 | 70 | 290 | 1.0 | 2.0 | 0.00 | 0.00 | 0.00 | 28 | 1000.5 |
| 20260508210902 | 70 | 275 | 1.0 | 3.0 | 0.00 | 0.00 | 0.00 | 28 | 1000.6 |
| 20260508205901 | 70 | 261 | 2.0 | 3.0 | 0.00 | 0.00 | 0.00 | 29 | 1000.9 |
| 20260508204902 | 69 | 260 | 3.0 | 4.0 | 0.00 | 0.00 | 0.00 | 30 | 1001.0 |
| 20260508203902 | 70 | 291 | 2.0 | 4.0 | 0.00 | 0.00 | 0.00 | 29 | 1001.2 |
| 20260508202902 | 69 | 252 | 5.0 | 9.0 | 0.00 | 0.00 | 0.00 | 28 | 1001.3 |
| 20260508201902 | 68 | 251 | 5.0 | 8.0 | 0.00 | 0.00 | 0.00 | 29 | 1001.5 |
| 20260508200902 | 69 | 295 | 2.0 | 3.0 | 0.00 | 0.00 | 0.00 | 29 | 1001.7 |
| 20260508194902 | 69 | 289 | 2.0 | 3.0 | 0.00 | 0.00 | 0.00 | 29 | 1002.0 |
| 20260508193903 | 68 | 306 | 1.0 | 2.0 | 0.00 | 0.00 | 0.00 | 26 | 1002.1 |
| 20260508192901 | 68 | 296 | 2.0 | 4.0 | 0.00 | 0.00 | 0.00 | 28 | 1002.2 |
| 20260508191902 | 68 | 298 | 2.0 | 2.0 | 0.00 | 0.00 | 0.00 | 27 | 1002.3 |
| 20260508190902 | 69 | 255 | 2.0 | 3.0 | 0.00 | 0.00 | 0.00 | 29 | 1002.4 |
| 20260508190002 | 69 | 283 | 3.0 | 7.0 | 0.00 | 0.00 | 0.00 | 27 | 1002.5 |
| 20260508184903 | 69 | 315 | 3.0 | 5.0 | 0.00 | 0.00 | 0.00 | 26 | 1002.7 |
| 20260508183932 | 69 | 259 | 3.0 | 4.0 | 0.00 | 0.00 | 0.00 | 29 | 1002.8 |
| 20260508182902 | 69 | 278 | 2.0 | 4.0 | 0.00 | 0.00 | 0.00 | 30 | 1003.0 |
| 20260508181903 | 68 | 292 | 3.0 | 3.0 | 0.00 | 0.00 | 0.00 | 26 | 1003.1 |
| 20260508180901 | 68 | 267 | 1.0 | 1.0 | 0.00 | 0.00 | 0.00 | 29 | 1003.4 |
| 20260508175932 | 68 | 282 | 2.0 | 3.0 | 0.00 | 0.00 | 0.00 | 31 | 1003.6 |
| 20260508175002 | 68 | 275 | 1.0 | 4.0 | 0.00 | 0.00 | 0.00 | 31 | 1003.8 |
| 20260508173933 | 67 | 277 | 1.0 | 2.0 | 0.00 | 0.00 | 0.00 | 30 | 1004.0 |
| 20260508172901 | 66 | 264 | 2.0 | 3.0 | 0.00 | 0.00 | 0.00 | 34 | 1004.2 |
| 20260508171903 | 65 | 276 | 2.0 | 4.0 | 0.00 | 0.00 | 0.00 | 34 | 1004.4 |
| 20260508170902 | 65 | 282 | 2.0 | 3.0 | 0.00 | 0.00 | 0.00 | 32 | 1004.7 |
| 20260508165902 | 64 | 259 | 2.0 | 3.0 | 0.00 | 0.00 | 0.00 | 35 | 1004.8 |
| 20260508164903 | 62 | 280 | 1.0 | 2.0 | 0.00 | 0.00 | 0.00 | 38 | 1004.9 |
| 20260508163901 | 61 | 305 | 1.0 | 2.0 | 0.00 | 0.00 | 0.00 | 38 | 1005.0 |
| 20260508162902 | 61 | 273 | 2.0 | 3.0 | 0.00 | 0.00 | 0.00 | 35 | 1005.2 |
| 20260508161902 | 62 | 269 | 2.0 | 3.0 | 0.00 | 0.00 | 0.00 | 36 | 1005.2 |
| 20260508160903 | 62 | 273 | 2.0 | 3.0 | 0.00 | 0.00 | 0.00 | 37 | 1005.3 |
| 20260508155902 | 61 | 267 | 2.0 | 2.0 | 0.00 | 0.00 | 0.00 | 39 | 1005.4 |
| 20260508154901 | 60 | 274 | 2.0 | 3.0 | 0.00 | 0.00 | 0.00 | 40 | 1005.4 |
| 20260508153932 | 60 | 289 | 2.0 | 3.0 | 0.00 | 0.00 | 0.00 | 39 | 1005.5 |
| 20260508152902 | 60 | 276 | 2.0 | 3.0 | 0.00 | 0.00 | 0.00 | 38 | 1005.6 |
| 20260508151902 | 60 | 289 | 1.0 | 2.0 | 0.00 | 0.00 | 0.00 | 38 | 1005.8 |
| 20260508150902 | 60 | 276 | 2.0 | 3.0 | 0.00 | 0.00 | 0.00 | 37 | 1005.8 |
| 20260508145902 | 59 | 262 | 1.0 | 2.0 | 0.00 | 0.00 | 0.00 | 40 | 1006.0 |
| 20260508144902 | 58 | 259 | 0.0 | 1.0 | 0.00 | 0.00 | 0.00 | 40 | 1006.0 |
| 20260508143902 | 57 | 262 | 1.0 | 2.0 | 0.00 | 0.00 | 0.00 | 42 | 1006.0 |
| 20260508142903 | 57 | 246 | 0.0 | 1.0 | 0.00 | 0.00 | 0.00 | 41 | 1006.1 |
| 20260508141902 | 56 | 241 | 2.0 | 3.0 | 0.00 | 0.00 | 0.00 | 40 | 1006.2 |
| 20260508140902 | 56 | 205 | 1.0 | 2.0 | 0.00 | 0.00 | 0.00 | 42 | 1006.2 |
| 20260508135933 | 55 | 262 | 1.0 | 2.0 | 0.00 | 0.00 | 0.00 | 43 | 1006.3 |
| 20260508134902 | 55 | 262 | 1.0 | 2.0 | 0.00 | 0.00 | 0.00 | 42 | 1006.3 |
| 20260508133902 | 54 | 268 | 2.0 | 4.0 | 0.00 | 0.00 | 0.00 | 44 | 1006.4 |
| 20260508132902 | 52 | 250 | 1.0 | 3.0 | 0.00 | 0.00 | 0.00 | 44 | 1006.5 |
| 20260508131902 | 51 | 250 | 0.0 | 2.0 | 0.00 | 0.00 | 0.00 | 44 | 1006.6 |
| 20260508130903 | 50 | 226 | 2.0 | 3.0 | 0.00 | 0.00 | 0.00 | 47 | 1006.7 |
| 20260508125903 | 49 | 231 | 1.0 | 2.0 | 0.00 | 0.00 | 0.00 | 48 | 1006.7 |
| 20260508124932 | 48 | 202 | 2.0 | 4.0 | 0.00 | 0.00 | 0.00 | 50 | 1006.8 |
| 20260508123902 | 48 | 215 | 2.0 | 3.0 | 0.00 | 0.00 | 0.00 | 49 | 1006.8 |
| 20260508122902 | 46 | 221 | 1.0 | 2.0 | 0.00 | 0.00 | 0.00 | 49 | 1006.7 |
| 20260508121902 | 46 | 219 | 1.0 | 3.0 | 0.00 | 0.00 | 0.00 | 51 | 1006.8 |
| 20260508120902 | 45 | 224 | 0.0 | 2.0 | 0.00 | 0.00 | 0.00 | 50 | 1006.8 |
| 20260508115932 | 44 | 220 | 1.0 | 2.0 | 0.00 | 0.00 | 0.00 | 52 | 1006.7 |
| 20260508114902 | 44 | 233 | 0.0 | 1.0 | 0.00 | 0.00 | 0.00 | 52 | 1006.7 |
| 20260508113903 | 44 | 235 | 0.0 | 0.0 | 0.00 | 0.00 | 0.00 | 51 | 1006.7 |
| 20260508112902 | 44 | 235 | 0.0 | 0.0 | 0.00 | 0.00 | 0.00 | 50 | 1006.7 |
| 20260508111902 | 44 | 241 | 1.0 | 2.0 | 0.00 | 0.00 | 0.00 | 50 | 1006.7 |